• In Romania
  • List of Countries
  • For 7 days
  • Water Temperature
  • Satellite Maps
  • Weather Map
  • Weather Widgets
  • user-avatar
    Login

    Hourly Weather Satif

    Today, 22 February, Wednesday

    Time Temperature Precipitation Wind Pressure Humidity
    00:00 +6°C° 0 mm 2 mps 674 mmHg 72%
    01:00 +6°C° 0 mm 2 mps 674 mmHg 74%
    02:00 +5°C° 0 mm 2 mps 674 mmHg 75%
    03:00 +5°C° 0 mm 2 mps 674 mmHg 76%
    04:00 +5°C° 0 mm 2 mps 674 mmHg 76%
    05:00 +5°C° 0 mm 2 mps 674 mmHg 76%
    06:00 +5°C° 0 mm 2 mps 674 mmHg 75%
    07:00 +8°C° 0 mm 2 mps 674 mmHg 66%
    08:00 +12°C° 0 mm 2 mps 675 mmHg 56%
    09:00 +14°C° 0 mm 2 mps 676 mmHg 47%
    10:00 +16°C° 0 mm 2 mps 676 mmHg 42%
    11:00 +18°C° 0 mm 2 mps 677 mmHg 37%
    12:00 +20°C° 0 mm 2 mps 677 mmHg 32%
    13:00 +20°C° 0 mm 2 mps 676 mmHg 33%
    14:00 +20°C° 0 mm 2 mps 676 mmHg 35%
    15:00 +19°C° 0 mm 2 mps 676 mmHg 37%
    16:00 +17°C° 0 mm 2 mps 675 mmHg 45%
    17:00 +14°C° 0 mm 2 mps 674 mmHg 53%
    18:00 +11°C° 0 mm 1 mps 673 mmHg 62%
    19:00 +11°C° 0 mm 1 mps 673 mmHg 62%
    20:00 +10°C° 0 mm 1 mps 673 mmHg 62%
    21:00 +10°C° 0 mm 1 mps 673 mmHg 62%
    22:00 +10°C° 0 mm 1 mps 673 mmHg 62%
    23:00 +8°C° 0 mm 2 mps 673 mmHg 62%

    Tomorrow, 23 February, Thursday

    Time Temperature Precipitation Wind Pressure Humidity
    00:00 +8°C° 0 mm 2 mps 673 mmHg 61%
    01:00 +8°C° 0 mm 2 mps 673 mmHg 62%
    02:00 +8°C° 0 mm 2 mps 673 mmHg 63%
    03:00 +8°C° 0 mm 2 mps 672 mmHg 64%
    04:00 +8°C° 0 mm 2 mps 672 mmHg 64%
    05:00 +8°C° 0 mm 2 mps 672 mmHg 64%
    06:00 +8°C° 0 mm 2 mps 672 mmHg 64%
    07:00 +10°C° 0 mm 2 mps 673 mmHg 58%
    08:00 +14°C° 0 mm 2 mps 673 mmHg 52%
    09:00 +16°C° 0 mm 2 mps 674 mmHg 45%
    10:00 +18°C° 0.1 mm 2 mps 674 mmHg 42%
    11:00 +19°C° 0.1 mm 3 mps 674 mmHg 39%
    12:00 +21°C° 0.1 mm 3 mps 674 mmHg 35%
    13:00 +21°C° 0 mm 3 mps 673 mmHg 34%
    14:00 +21°C° 0 mm 4 mps 673 mmHg 34%
    15:00 +21°C° 0 mm 4 mps 672 mmHg 33%
    16:00 +18°C° 0 mm 3 mps 671 mmHg 42%
    17:00 +15°C° 0 mm 2 mps 671 mmHg 50%
    18:00 +13°C° 0 mm 2 mps 670 mmHg 59%
    19:00 +12°C° 0.2 mm 2 mps 669 mmHg 60%
    20:00 +12°C° 0.2 mm 2 mps 669 mmHg 60%
    21:00 +12°C° 0.2 mm 2 mps 669 mmHg 61%
    22:00 +11°C° 0 mm 3 mps 668 mmHg 59%
    23:00 +11°C° 0 mm 3 mps 668 mmHg 57%

    Day after tomorrow, 24 February, Friday

    Time Temperature Precipitation Wind Pressure Humidity
    00:00 +11°C° 0 mm 4 mps 667 mmHg 55%
    01:00 +10°C° 0 mm 3 mps 667 mmHg 55%
    02:00 +10°C° 0 mm 3 mps 667 mmHg 55%
    03:00 +9°C° 0 mm 3 mps 666 mmHg 55%
    04:00 +9°C° 0 mm 2 mps 666 mmHg 56%
    05:00 +8°C° 0 mm 2 mps 666 mmHg 57%
    06:00 +7°C° 0 mm 2 mps 666 mmHg 58%
    07:00 +10°C° 0 mm 2 mps 667 mmHg 53%
    08:00 +13°C° 0 mm 2 mps 668 mmHg 47%
    09:00 +15°C° 0 mm 2 mps 669 mmHg 42%
    10:00 +16°C° 0 mm 3 mps 669 mmHg 40%
    11:00 +17°C° 0 mm 3 mps 669 mmHg 39%
    12:00 +17°C° 0 mm 4 mps 669 mmHg 38%
    13:00 +17°C° 0.2 mm 4 mps 669 mmHg 43%
    14:00 +15°C° 0.2 mm 4 mps 669 mmHg 48%
    15:00 +16°C° 0.2 mm 3 mps 669 mmHg 53%
    16:00 +13°C° 0.2 mm 3 mps 669 mmHg 63%
    17:00 +11°C° 0.2 mm 3 mps 669 mmHg 73%
    18:00 +9°C° 0.2 mm 2 mps 668 mmHg 84%
    19:00 +8°C° 0.1 mm 2 mps 669 mmHg 87%
    20:00 +9°C° 0.1 mm 1 mps 670 mmHg 90%
    21:00 +8°C° 0.1 mm 1 mps 670 mmHg 94%
    22:00 +8°C° 0.1 mm 1 mps 670 mmHg 94%
    23:00 +8°C° 0.1 mm 1 mps 670 mmHg 94%

    25 February, Saturday

    Time Temperature Precipitation Wind Pressure Humidity
    00:00 +8°C° 0.1 mm 1 mps 671 mmHg 95%
    01:00 +7°C° 0.1 mm 1 mps 671 mmHg 95%
    02:00 +7°C° 0.1 mm 1 mps 670 mmHg 95%
    03:00 +7°C° 0.1 mm 1 mps 670 mmHg 95%
    04:00 +7°C° 0.2 mm 1 mps 671 mmHg 95%
    05:00 +7°C° 0.2 mm 1 mps 671 mmHg 95%
    06:00 +7°C° 0.2 mm 1 mps 671 mmHg 95%
    07:00 +7°C° 0.1 mm 2 mps 672 mmHg 91%
    08:00 +7°C° 0.1 mm 2 mps 673 mmHg 87%
    09:00 +8°C° 0.1 mm 2 mps 673 mmHg 83%
    10:00 +8°C° 0.1 mm 2 mps 673 mmHg 78%
    11:00 +9°C° 0.1 mm 2 mps 674 mmHg 73%
    12:00 +10°C° 0.1 mm 3 mps 674 mmHg 68%
    13:00 +10°C° 0 mm 3 mps 674 mmHg 65%
    14:00 +10°C° 0 mm 3 mps 673 mmHg 62%
    15:00 +10°C° 0 mm 3 mps 673 mmHg 59%
    16:00 +8°C° 0 mm 3 mps 673 mmHg 67%
    17:00 +7°C° 0 mm 2 mps 673 mmHg 75%
    18:00 +5°C° 0 mm 2 mps 673 mmHg 83%
    19:00 +5°C° 0 mm 1 mps 673 mmHg 86%
    20:00 +4°C° 0 mm 1 mps 673 mmHg 89%
    21:00 +3°C° 0 mm 1 mps 673 mmHg 92%
    22:00 +2°C° 0 mm 1 mps 673 mmHg 92%
    23:00 +2°C° 0 mm 1 mps 672 mmHg 92%

    26 February, Sunday

    Time Temperature Precipitation Wind Pressure Humidity
    00:00 0°C° 0 mm 0 mps 672 mmHg 92%
    01:00 0°C° 0 mm 0 mps 672 mmHg 92%
    02:00 0°C° 0 mm 0 mps 672 mmHg 91%
    03:00 +1°C° 0 mm 1 mps 672 mmHg 91%
    04:00 -1°C° 0 mm 0 mps 672 mmHg 91%
    05:00 -1°C° 0 mm 0 mps 672 mmHg 91%
    06:00 -1°C° 0 mm 0 mps 672 mmHg 91%
    07:00 +2°C° 0 mm 0 mps 673 mmHg 78%
    08:00 +5°C° 0 mm 0 mps 674 mmHg 66%
    09:00 +10°C° 0 mm 1 mps 675 mmHg 53%
    10:00 +11°C° 0 mm 1 mps 675 mmHg 47%
    11:00 +12°C° 0 mm 1 mps 675 mmHg 41%
    12:00 +14°C° 0 mm 1 mps 675 mmHg 35%
    13:00 +14°C° 0 mm 1 mps 675 mmHg 36%
    14:00 +14°C° 0 mm 2 mps 674 mmHg 37%
    15:00 +14°C° 0 mm 2 mps 674 mmHg 38%
    16:00 +10°C° 0 mm 2 mps 673 mmHg 50%
    17:00 +7°C° 0 mm 2 mps 673 mmHg 61%
    18:00 +6°C° 0 mm 1 mps 672 mmHg 73%
    19:00 +5°C° 0 mm 1 mps 672 mmHg 78%
    20:00 +4°C° 0 mm 1 mps 672 mmHg 82%
    21:00 +3°C° 0 mm 1 mps 672 mmHg 87%
    22:00 +3°C° 0 mm 1 mps 672 mmHg 87%
    23:00 +2°C° 0 mm 1 mps 672 mmHg 87%

    27 February, Monday

    Time Temperature Precipitation Wind Pressure Humidity
    00:00 +2°C° 0 mm 1 mps 672 mmHg 87%
    01:00 +2°C° 0 mm 1 mps 671 mmHg 86%
    02:00 +2°C° 0 mm 1 mps 671 mmHg 86%
    03:00 +2°C° 0 mm 1 mps 671 mmHg 85%
    04:00 +2°C° 0 mm 1 mps 671 mmHg 84%
    05:00 +2°C° 0 mm 1 mps 671 mmHg 83%
    06:00 +2°C° 0 mm 1 mps 671 mmHg 82%
    07:00 +5°C° 0 mm 1 mps 672 mmHg 68%
    08:00 +9°C° 0 mm 1 mps 673 mmHg 55%
    09:00 +12°C° 0 mm 1 mps 674 mmHg 42%
    10:00 +14°C° 0 mm 1 mps 674 mmHg 37%
    11:00 +15°C° 0 mm 2 mps 675 mmHg 33%
    12:00 +17°C° 0 mm 2 mps 675 mmHg 29%
    13:00 +17°C° 0 mm 2 mps 674 mmHg 30%
    14:00 +17°C° 0 mm 2 mps 674 mmHg 31%
    15:00 +17°C° 0 mm 2 mps 673 mmHg 33%
    16:00 +14°C° 0 mm 2 mps 672 mmHg 43%
    17:00 +9°C° 0 mm 2 mps 672 mmHg 54%
    18:00 +7°C° 0 mm 1 mps 671 mmHg 65%
    19:00 +7°C° 0 mm 1 mps 671 mmHg 66%
    20:00 +7°C° 0 mm 1 mps 671 mmHg 66%
    21:00 +6°C° 0 mm 1 mps 671 mmHg 67%
    22:00 +6°C° 0 mm 1 mps 671 mmHg 65%
    23:00 +5°C° 0 mm 2 mps 671 mmHg 63%
    Show more